Weather History for Tacoma, WA

Change the Weather History Date:

Friday, March 2, 2012

  Actual Average Record
Temperature  
Mean Temperature 40 °F -  
Max Temperature 45 °F 48 °F 64 °F (1990)
Min Temperature 36 °F 31 °F 17 °F (1989)
Degree Days  
Heating Degree Days 24    
Moisture  
Dew Point 38 °F    
Average Humidity 85    
Maximum Humidity 95    
Minimum Humidity 74    
Precipitation  
Precipitation 0.01 in - - ()
Sea Level Pressure  
Sea Level Pressure 30.40 in    
Wind  
Wind Speed 8 mph (South)    
Max Wind Speed 15 mph    
Max Gust Speed -    
Visibility 10 miles    
Events Rain    
Averages and records for this station are not official NWS values.
T = Trace of Precipitation, MM = Missing Value Source: NWS Daily Summary

Daily Weather History Graph

Daily Weather History Graph

Search for Another Location

Airport:

Trip Planner

Search our weather history database for the weather conditions in past years. The results will help you decide how hot, cold, wet, or windy it might be!

Date:

Astronomy

Mar. 02, 2012 Rise Set
Actual Time 6:46 AM PST 5:57 PM PST
Civil Twilight 6:16 AM PST 6:28 PM PST
Nautical Twilight 5:41 AM PST 7:03 PM PST
Astronomical Twilight 5:05 AM PST 7:39 PM PST
Moon 11:56 AM PST (3/2) 2:59 AM PST (3/2)
Length of Visible Light 12h 11m
Length of Day
11h 10m
Waxing Gibbous, 67% of the Moon is Illuminated
Mar 2
Waxing Gibbous
Mar 8
Full
Mar 14
Last Quarter
Mar 22
New
Mar 30
First Quarter

Hourly Weather History & Observations

Time (PST) Temp. Windchill Dew Point Humidity Pressure Visibility Wind Dir Wind Speed Gust Speed Precip Events Conditions
12:55 AM 36.5 °F 29.7 °F 35.1 °F 95% 30.38 in 10.0 mi South 9.2 mph - N/A   Overcast
1:55 AM 36.0 °F 29.6 °F 34.7 °F 95% 30.39 in 10.0 mi South 8.1 mph - N/A   Overcast
2:55 AM 37.9 °F 33.5 °F 35.4 °F 91% 30.41 in 10.0 mi South 5.8 mph - N/A   Overcast
3:55 AM 38.1 °F 32.9 °F 35.4 °F 90% 30.41 in 10.0 mi South 6.9 mph - N/A   Overcast
4:55 AM 37.0 °F 31.6 °F 35.4 °F 94% 30.42 in 10.0 mi SSE 6.9 mph - N/A   Overcast
5:55 AM 37.0 °F 32.4 °F 35.4 °F 94% 30.42 in 10.0 mi South 5.8 mph - N/A   Overcast
6:52 AM 37.4 °F 32.1 °F 35.6 °F 93% 30.42 in 10.0 mi South 6.9 mph - N/A   Overcast
6:55 AM 37.8 °F 33.3 °F 35.8 °F 93% 30.42 in 10.0 mi South 5.8 mph - N/A   Overcast
7:51 AM 39.2 °F 35.0 °F 35.6 °F 87% 30.43 in 10.0 mi South 5.8 mph - N/A   Overcast
7:55 AM 38.7 °F 35.2 °F 35.8 °F 89% 30.43 in 10.0 mi South 4.6 mph - N/A   Overcast
8:55 AM 40.3 °F 33.9 °F 36.1 °F 85% 30.44 in 10.0 mi South 10.4 mph - N/A   Overcast
9:10 AM 41.0 °F 36.4 °F 37.4 °F 87% 30.44 in 10.0 mi South 6.9 mph - N/A   Overcast
9:15 AM 41.0 °F 35.8 °F 37.4 °F 87% 30.44 in 10.0 mi South 8.1 mph - N/A   Overcast
9:17 AM 41.0 °F 35.2 °F 37.4 °F 87% 30.44 in 10.0 mi South 9.2 mph - N/A   Overcast
9:55 AM 42.6 °F 36.3 °F 36.7 °F 79% 30.43 in 10.0 mi South 11.5 mph - N/A   Overcast
10:55 AM 44.4 °F 37.5 °F 36.9 °F 75% 30.42 in 10.0 mi South 15.0 mph - N/A   Overcast
11:55 AM 44.6 °F 38.8 °F 36.9 °F 74% 30.43 in 10.0 mi SSW 11.5 mph - N/A   Overcast
12:55 PM 44.6 °F 38.4 °F 38.1 °F 78% 30.42 in 10.0 mi SSW 12.7 mph - N/A   Overcast
1:00 PM 44.6 °F 37.8 °F 37.4 °F 76% 30.42 in 10.0 mi SSW 15.0 mph - N/A Rain Light Rain
1:28 PM 42.8 °F 37.5 °F 39.2 °F 87% 30.42 in 10.0 mi South 9.2 mph - N/A   Overcast
1:55 PM 44.1 °F 40.1 °F 38.3 °F 80% 30.41 in 10.0 mi SSW 6.9 mph - 0.00 in   Overcast
2:02 PM 44.6 °F 39.7 °F 39.2 °F 81% 30.41 in 10.0 mi SSW 9.2 mph - N/A   Overcast
2:17 PM 44.6 °F 39.2 °F 37.4 °F 76% 30.41 in 10.0 mi SSW 10.4 mph - N/A Rain Light Rain
2:27 PM 44.6 °F 39.2 °F 39.2 °F 81% 30.40 in 10.0 mi SSW 10.4 mph - N/A   Overcast
2:37 PM 44.6 °F 40.2 °F 37.4 °F 76% 30.40 in 10.0 mi SSW 8.1 mph - N/A Rain Light Rain
2:55 PM 44.4 °F 38.6 °F 38.5 °F 80% 30.40 in 10.0 mi SSW 11.5 mph - 0.00 in Rain Light Rain
3:04 PM 44.6 °F 39.7 °F 39.2 °F 81% 30.40 in 10.0 mi SSW 9.2 mph - N/A Rain Light Rain
3:32 PM 44.6 °F 40.7 °F 39.2 °F 81% 30.40 in 10.0 mi South 6.9 mph - N/A   Overcast
3:55 PM 44.1 °F 40.1 °F 39.0 °F 82% 30.40 in 10.0 mi South 6.9 mph - 0.00 in   Overcast
4:55 PM 44.2 °F 41.0 °F 39.0 °F 82% 30.38 in 10.0 mi South 5.8 mph - N/A   Overcast
5:55 PM 43.3 °F 39.9 °F 40.1 °F 88% 30.37 in 10.0 mi SSE 5.8 mph - N/A   Overcast
6:55 PM 43.2 °F 41.5 °F 39.7 °F 88% 30.38 in 10.0 mi SSE 3.5 mph - N/A   Overcast
7:48 PM 44.6 °F 40.2 °F 39.2 °F 81% 30.38 in 10.0 mi South 8.1 mph - N/A   Overcast
7:55 PM 43.9 °F 39.3 °F 39.7 °F 85% 30.38 in 10.0 mi South 8.1 mph - 0.00 in   Overcast
7:57 PM 44.6 °F 40.2 °F 39.2 °F 81% 30.38 in 10.0 mi South 8.1 mph - N/A   Overcast
8:31 PM 44.6 °F 40.2 °F 39.2 °F 81% 30.38 in 10.0 mi South 8.1 mph - N/A   Overcast
8:55 PM 43.7 °F 38.1 °F 40.1 °F 87% 30.38 in 10.0 mi South 10.4 mph - 0.00 in   Overcast
9:55 PM 44.6 °F 39.7 °F 40.3 °F 85% 30.38 in 10.0 mi South 9.2 mph - 0.01 in   Overcast
9:57 PM 44.6 °F 39.2 °F 41.0 °F 87% 30.38 in 10.0 mi SSW 10.4 mph - N/A   Overcast
10:55 PM 45.1 °F 39.9 °F 40.5 °F 84% 30.37 in 10.0 mi South 10.4 mph - N/A   Overcast
11:04 PM 44.6 °F 39.2 °F 41.0 °F 87% 30.37 in 10.0 mi SSW 10.4 mph - N/A Rain Light Rain
11:15 PM 44.6 °F 38.8 °F 41.0 °F 87% 30.37 in 10.0 mi SSW 11.5 mph - N/A   Overcast
11:55 PM 45.3 °F 39.7 °F 41.0 °F 85% 30.35 in 10.0 mi South 11.5 mph - 0.00 in   Overcast